English version Home page |
Updated on March 8, 2009 |
プロフィール
|
軌道要素Epoch = 2008 May 14.0 TT T = 2008 May 13.2573 TT Peri. = 310.4836 e = 0.374407 Node = 36.4178 2000.0 q = 2.524827 AU Incl. = 4.4128 a = 4.035895 AU n = 0.1215610 P = 8.11 years
|
光度変化m1 = 12.7 + 5 logΔ + 10.0 log r
|
軌道要素は、IAUC 9000に掲載されたものです。
|